RH
27 40 44 35 32 28 27 26 27 23 19 21 24 24 20 16 16 16 15 14 14 14 14 13 14 14 14 38 58 72 78 81 84 83 78 66 60 61 58 56 43 40 27 30
36 40 29 25 26 26 26 28 28 23 20 21 24 22 21 19 18 16 16 16 15 15 14 14 14 14 15 18 52 57 72 75 80 79 75 63 57 61 60 59 57 46 32 35
38 31 22 24 25 25 24 27 29 28 23 21 24 23 20 17 16 14 14 14 14 14 14 19 19 19 17 17 19 47 65 74 76 79 77 69 64 64 67 64 59 51 39 40
28 22 22 23 25 23 27 22 23 24 29 38 21 36 24 20 19 17 14 13 16 21 26 29 28 26 33 21 30 44 75 80 81 81 78 70 65 64 67 66 65 59 47 40
28 23 25 26 22 19 23 23 22 23 29 32 27 36 26 20 22 18 16 14 32 35 37 36 34 32 36 52 64 79 81 83 82 82 80 74 70 69 67 68 68 68 60 54
28 20 21 21 20 18 19 23 26 25 29 42 24 35 25 20 22 26 31 31 36 39 36 36 40 40 48 59 77 79 77 81 84 86 83 78 75 71 69 70 68 68 63 61
27 25 20 18 23 22 24 31 54 49 51 43 22 32 24 30 34 33 39 38 37 42 45 45 42 50 60 88 88 89 87 86 87 87 87 84 73 70 69 70 69 69 68 71
35 37 20 26 36 45 38 37 63 69 63 63 38 49 29 55 57 61 54 51 43 42 46 52 54 54 59 73 98 97 96 92 91 89 88 80 74 69 70 70 70 70 70 72
45 32 25 25 28 32 46 59 40 54 60 76 53 38 26 52 65 63 70 80 82 76 56 50 57 59 62 65 72 90 95 91 89 88 87 88 77 69 70 73 76 74 76 75
33 49 31 30 25 26 35 30 65 70 91 73 44 36 36 85 80 73 76 84 79 80 80 80 60 64 69 74 90 89 86 99 98 95 94 95 89 78 75 76 78 78 80 81
36 43 42 30 32 35 43 57 65 76 91 95 78 62 62 88 83 85 79 76 82 64 74 88 90 65 69 74 75 82 84 78 82 100 100 100 99 93 92 86 84 84 84 87
52 52 61 41 31 28 30 34 36 76 62 85 81 69 37 62 76 72 67 61 65 60 59 65 88 75 62 57 58 77 85 89 87 94 100 100 100 100 98 93 90 89 88 94
48 70 80 48 35 33 37 32 34 42 61 62 84 79 37 60 62 53 50 47 51 58 50 50 65 89 81 68 61 67 87 92 92 100 100 99 100 100 100 99 96 96 98 92
44 58 68 69 54 49 54 43 34 43 70 60 59 54 40 36 36 46 48 33 34 48 41 44 52 73 78 76 64 64 76 91 93 94 100 100 100 100 100 100 100 100 100 100
53 72 59 53 46 47 48 46 43 51 46 55 44 36 28 26 28 42 44 30 39 41 43 42 52 52 68 79 76 71 62 72 77 84 97 98 100 100 100 100 100 99 100 100
41 70 52 59 45 42 44 36 34 33 32 34 35 36 25 37 36 30 43 38 38 44 40 41 36 49 70 76 64 64 61 62 71 78 97 99 99 100 98 99 100 100 100 99
55 74 74 72 49 51 69 45 39 41 35 36 44 33 43 50 45 36 29 30 39 42 34 42 47 79 76 82 62 61 67 66 70 78 94 99 99 98 100 100 100 100 99 99
50 56 71 71 59 90 45 28 26 29 28 26 30 40 41 41 42 45 48 40 44 43 49 52 56 59 62 55 73 71 75 78 78 80 88 98 100 99 100 100 100 100 98 99
37 47 74 73 70 52 45 36 36 39 45 29 54 45 43 63 54 56 55 53 53 58 60 59 47 47 56 65 72 77 78 81 85 87 91 99 98 100 100 98 97 97 98 97
33 41 58 77 95 94 42 54 53 50 55 57 62 64 72 66 82 77 56 69 63 59 51 58 52 47 49 66 83 83 77 78 87 94 89 95 100 100 99 100 100 100 97 97
59 78 83 85 94 76 53 47 53 79 67 58 55 68 70 91 86 75 69 55 52 53 53 46 50 53 52 32 44 74 89 82 82 96 100 100 100 100 100 100 99 97 97 97
72 81 91 86 90 80 48 56 66 58 61 64 67 63 67 70 64 82 85 55 41 40 39 48 52 48 31 40 59 65 73 84 96 100 100 100 100 100 100 98 97 100 98 96
88 93 96 95 90 64 46 49 52 64 75 69 74 63 60 64 71 75 89 75 37 41 44 47 51 56 41 48 68 72 77 95 98 98 100 100 100 99 98 98 98 98 97 96
52 42 77 92 57 43 33 52 53 53 62 62 45 44 44 60 62 75 82 66 36 35 44 49 55 53 46 55 65 78 81 96 100 100 100 99 99 98 97 97 97 96 96 95
64 58 62 59 47 44 38 36 42 44 43 46 44 39 36 48 56 56 73 49 30 38 46 50 50 50 43 58 75 81 84 88 100 98 100 98 97 98 97 97 97 96 95 96
59 62 78 69 44 51 45 37 32 31 30 34 32 38 35 38 49 55 51 42 29 34 47 48 42 52 45 55 67 79 87 84 91 97 98 97 97 97 97 96 96 96 96 95
Wind_Speed
12 5 10 8 11 14 15 17 16 12 11 7 9 8 7 8 13 14 17 27 28 30 33 36 38 34 33 39 47 47 51 50 46 41 41 41 39 35 34 34 33 32 32 30
7 15 14 13 17 17 15 15 13 13 9 12 14 24 10 10 11 16 16 18 27 32 34 37 35 35 27 38 48 49 55 55 49 44 41 43 41 38 37 36 33 30 31 32
15 8 13 14 15 18 16 11 8 11 7 8 9 26 11 10 13 25 28 29 34 36 38 21 23 20 31 36 47 51 57 57 51 46 42 40 36 37 37 38 37 34 33 34
11 17 21 22 18 14 16 4 8 10 8 5 3 17 15 14 16 12 18 21 18 10 8 7 9 9 9 28 41 48 56 54 50 46 42 41 43 45 42 40 36 33 33 34
8 5 5 6 5 3 3 8 4 3 4 8 7 4 24 1 11 13 14 25 9 8 6 5 3 2 3 16 36 45 50 48 46 42 38 39 39 41 39 35 32 28 26 30
7 17 3 4 7 2 3 4 8 5 2 6 20 7 23 13 7 12 13 7 8 8 6 4 4 2 1 13 28 39 41 41 40 39 38 37 38 38 38 37 36 32 30 31
6 12 7 9 12 8 4 1 3 3 4 10 3 6 15 6 4 11 3 10 6 8 12 13 10 7 6 6 18 31 35 35 34 35 32 33 36 38 38 38 37 34 33 32
4 4 1 9 6 3 4 2 4 5 2 7 14 6 4 17 24 33 33 30 18 12 11 13 11 7 6 3 8 22 30 31 30 32 35 37 35 38 39 39 36 34 34 34
5 3 6 12 7 5 3 3 1 4 5 4 4 7 14 14 16 19 21 29 32 35 24 10 12 11 8 3 2 6 19 25 29 32 36 36 31 40 39 39 36 35 35 35
5 3 6 6 8 5 5 5 4 2 4 6 7 11 10 12 13 13 15 16 22 30 34 29 14 11 13 7 2 5 8 14 19 25 32 38 32 37 38 40 40 38 37 34
8 3 4 5 2 5 6 3 4 1 3 3 6 5 5 4 4 4 5 12 13 14 27 30 31 11 13 10 7 9 10 9 10 17 25 29 30 32 32 36 39 38 34 30
2 1 3 7 10 10 9 11 8 3 10 6 4 13 10 3 5 6 6 8 8 10 20 19 32 17 17 12 7 8 8 7 10 15 20 22 26 31 34 38 39 37 33 29
3 2 4 9 4 8 5 5 11 10 2 13 6 7 9 4 3 11 13 15 18 18 17 14 10 21 19 10 7 4 5 7 9 10 11 14 21 28 35 38 38 34 31 30
7 4 6 9 9 8 12 20 21 13 7 13 16 19 18 20 18 17 20 26 24 26 25 28 15 20 22 13 8 4 8 10 11 9 11 14 18 26 31 34 32 29 27 27
5 6 6 11 12 12 15 21 18 17 18 20 22 24 23 20 18 21 30 32 26 33 32 31 26 28 26 20 10 7 8 10 9 10 11 15 20 23 26 25 25 24 25 23
2 4 4 14 12 15 20 24 22 24 24 26 24 27 22 25 32 26 31 31 32 35 33 33 28 31 30 22 10 3 5 6 7 9 12 19 18 20 24 25 24 23 23 23
3 1 1 9 11 11 11 23 16 21 22 23 23 22 16 20 23 27 24 29 31 37 25 15 12 21 23 19 10 7 6 5 8 10 14 15 18 21 26 23 24 23 23 23
7 5 3 8 8 8 17 7 14 17 19 21 17 18 19 24 38 30 11 11 7 8 7 14 13 10 12 9 16 11 12 12 10 12 13 16 20 22 24 22 24 24 24 24
13 10 4 7 10 13 21 9 12 15 23 18 12 18 20 21 24 8 9 5 11 15 13 8 13 9 9 8 12 15 15 17 17 15 16 16 19 24 26 25 26 24 25 22
12 17 10 6 4 6 16 12 22 17 18 12 9 6 10 20 10 6 17 19 18 17 19 9 7 8 9 7 8 13 16 20 23 21 13 15 22 25 26 27 28 28 23 23
4 2 10 9 6 6 2 12 22 5 7 18 18 14 13 3 7 26 24 22 22 23 22 19 15 13 9 6 9 14 19 21 21 20 20 21 23 27 28 31 31 26 26 25
3 2 3 2 2 5 4 2 1 7 20 19 22 21 14 13 18 9 11 17 22 21 18 16 16 10 4 2 4 9 12 13 17 19 26 25 25 30 32 33 30 29 27 25
2 3 2 2 4 15 16 8 7 13 14 12 22 25 20 20 4 8 12 11 21 21 21 15 12 8 3 3 5 6 9 12 14 18 22 21 23 29 32 32 33 31 26 25
5 5 3 3 5 11 19 7 5 1 1 5 13 20 23 18 14 8 6 14 22 22 21 15 9 4 0 3 1 2 3 6 10 14 18 20 25 29 32 33 31 29 29 29
6 7 6 10 12 12 19 23 13 10 8 9 10 13 19 20 11 11 11 13 19 22 24 19 9 6 2 4 3 2 3 2 6 11 17 21 26 29 31 31 29 30 29 26
7 8 3 9 19 11 18 23 26 26 20 17 15 10 13 14 19 7 12 8 7 15 20 15 7 7 6 4 3 2 3 3 6 13 19 22 27 30 30 28 28 25 23 23
Wind_Direction
267 187 235 239 235 238 253 265 272 288 298 317 290 288 291 273 270 275 258 232 233 238 238 242 243 235 238 224 221 214 215 216 213 206 202 206 211 213 217 220 217 215 210 201
268 249 253 244 243 261 269 279 288 296 303 311 315 298 291 283 282 291 278 269 243 239 240 243 252 227 231 230 218 217 216 215 213 212 208 210 209 208 215 220 221 216 209 201
235 250 286 252 266 267 265 269 263 271 296 307 318 289 283 277 255 264 272 275 270 268 264 225 216 223 230 234 228 217 214 213 212 212 205 205 204 204 206 215 220 214 208 202
258 244 244 256 257 258 268 333 21 10 7 281 237 291 276 273 279 293 299 299 320 256 180 187 199 190 207 229 230 215 207 206 207 207 202 203 202 202 207 212 216 212 207 201
231 284 360 327 221 86 250 23 358 332 329 324 259 262 279 208 291 269 261 277 99 88 74 51 359 279 278 207 208 201 201 203 205 206 208 205 201 203 209 209 215 218 210 204
253 286 254 228 290 226 317 355 306 276 140 253 266 192 272 306 337 336 334 17 93 58 30 10 36 326 335 184 201 201 205 204 207 205 203 206 205 206 208 208 212 214 211 208
253 251 270 242 248 252 158 120 309 307 191 231 46 260 239 69 21 337 89 101 69 34 18 360 4 13 29 135 181 198 197 201 203 204 212 210 203 207 213 213 214 213 209 208
229 319 259 22 69 37 349 150 166 261 255 311 326 248 225 53 22 19 23 23 22 36 32 23 3 2 5 11 158 185 195 202 207 207 208 203 206 210 213 216 216 215 212 209
7 221 357 30 28 36 33 15 17 323 270 247 242 291 315 32 27 16 12 15 8 11 3 355 352 343 328 325 248 203 183 193 201 206 209 207 205 206 208 210 208 210 211 208
28 345 336 17 13 64 62 336 15 356 288 260 272 297 286 22 7 6 1 13 17 5 1 358 348 348 319 339 7 266 219 193 201 209 210 209 198 200 206 208 206 206 209 208
17 127 283 15 325 17 357 6 21 75 154 262 292 269 107 88 50 357 328 346 351 323 330 328 324 301 301 304 299 272 273 257 227 231 217 211 204 203 203 202 204 207 210 208
19 287 286 263 286 303 292 283 269 167 275 232 244 260 317 299 164 216 271 292 296 312 282 277 313 266 270 290 298 262 262 261 239 223 225 212 214 207 206 204 204 202 204 206
4 340 343 306 270 235 257 321 318 321 257 274 294 280 329 266 228 277 276 280 274 264 284 288 263 267 244 258 275 220 234 225 217 215 222 221 211 203 200 199 198 197 203 201
127 189 197 243 268 318 294 295 299 294 268 286 269 282 278 272 265 254 260 274 270 269 268 260 256 210 233 233 245 203 184 214 214 209 221 231 221 208 202 199 198 200 203 205
160 201 234 265 285 298 290 285 289 282 275 274 286 283 280 280 286 250 245 262 262 253 248 257 246 233 233 228 215 196 161 185 193 196 209 227 216 208 208 207 208 210 209 206
323 262 272 277 282 280 284 281 280 279 281 276 280 280 289 312 302 268 245 247 249 248 247 246 252 235 215 221 224 236 234 198 170 163 189 208 205 216 219 220 214 208 203 202
227 219 90 271 284 305 293 263 270 266 267 266 269 283 303 292 291 281 272 260 244 247 230 212 215 192 199 230 221 235 250 250 217 176 194 204 211 214 218 217 210 203 203 204
231 218 163 263 298 260 251 267 247 259 273 277 268 286 289 292 286 275 339 236 230 237 224 195 178 193 183 206 235 234 235 241 233 217 209 211 213 212 216 211 206 204 206 206
217 228 239 228 240 269 292 255 267 265 275 282 244 266 281 317 327 261 279 209 176 149 108 83 138 117 104 193 227 221 235 243 236 231 225 220 221 216 215 211 212 209 202 200
226 224 220 243 235 231 276 10 342 307 279 16 9 307 299 324 346 273 230 188 171 151 138 178 188 195 195 183 211 230 229 238 238 236 253 241 231 226 222 217 210 202 202 203
284 306 203 229 242 256 250 351 347 321 283 333 324 303 318 313 311 294 176 169 157 150 155 163 170 190 211 232 243 234 226 236 251 246 253 243 239 229 219 213 207 203 202 197
268 207 224 254 211 272 349 352 146 252 307 310 330 313 307 320 319 259 284 191 154 150 153 162 170 181 179 169 187 215 229 251 256 252 244 240 232 222 215 208 201 203 199 193
279 203 300 263 239 291 296 229 268 291 302 343 342 322 322 321 304 290 283 294 158 166 154 167 180 179 134 105 158 203 228 235 240 243 241 237 227 221 213 202 201 198 195 189
287 295 244 208 242 288 316 224 249 10 19 303 341 321 333 324 1 10 194 227 180 166 157 162 177 200 197 353 6 263 234 221 223 239 231 221 215 209 203 202 204 197 192 193
248 306 270 286 289 331 309 304 260 261 279 294 311 314 326 325 340 352 354 333 195 165 159 162 179 207 276 306 285 305 310 257 213 217 214 210 208 205 200 204 202 200 207 211
208 248 224 268 283 268 279 302 301 290 296 303 292 298 305 319 306 294 332 236 176 166 167 156 196 222 245 257 273 293 292 248 211 201 201 203 201 200 202 199 196 205 211 211